Regional Weather Roundup
Issued by NWS Albany, NY

Current Version | Previous Version | Text Only | Print | Product List | Glossary On
Versions: 1 2 3 4 5 6 7 8 9 10 11 12 13 14 15 16 17 18 19 20 21 22 23 24 25 26 27 28 29 30 31 32 33 34 35 36 37 38 39 40 41 42 43 44 45 46 47 48 49 50
259
ASUS41 KALY 202310
RWRALY

NEW YORK STATE HOURLY WEATHER ROUNDUP
NATIONAL WEATHER SERVICE ALBANY NY
700 PM EDT WED MAR 20 2019

NOTE: "FAIR" INDICATES FEW OR NO CLOUDS BELOW 12,000 FEET WITH NO
SIGNIFICANT WEATHER AND/OR NO OBSTRUCTIONS TO VISIBILITY.

NYZ032-033-038>043-046>054-057>066-NYZ062>081-082-084-210000-
EAST


CITY           SKY/WX    TMP DP  RH WIND       PRES   REMARKS
ALBANY         FAIR      52  16  24 S13       30.19S
GLENS FALLS    FAIR      47  22  37 SE3       30.18S
POUGHKEEPSIE   FAIR      48  19  31 S12G20    30.24R
NEWBURGH       MOCLDY    46  23  39 S12       30.25R
MONTGOMERY     FAIR      46  22  38 S13       30.22R
WHITE PLAINS   FAIR      44  23  43 S10       30.28S
ISLIP          MOCLDY    42  33  70 SE9       30.32S
NEW YORK CITY  MOCLDY    46  29  51 S16       30.29S
CENTRAL PARK   FAIR      46  28  49 VRB3      30.32S
$$

NYZ005>009-017-018-044>046-055-056-210000-
CENTRAL


CITY           SKY/WX    TMP DP  RH WIND       PRES   REMARKS
FULTON         FAIR      49  19  30 CALM      30.12F
SYRACUSE       MOCLDY    49  19  30 S9        30.12S
ROME           FAIR      49  18  29 SE3       30.15S
ELMIRA         FAIR      49  19  30 S10       30.12S
BINGHAMTON     MOCLDY    44  16  32 SW10G21   30.13S
MONTICELLO     FAIR      44  17  33 S8        30.21R
$$

NYZ026>034-041>043-087-210000-
NORTH


CITY           SKY/WX    TMP DP  RH WIND       PRES   REMARKS
WATERTOWN      FAIR      44  25  47 CALM      30.14F
FORT DRUM      NOT AVBL
OGDENSBURG     MOCLDY    43  23  45 SW3       30.13S
MASSENA        FAIR      44  26  49 W5        30.17R
SARANAC LAKE   FAIR      40  17  39 SW7       30.10S
PLATTSBURGH    FAIR      43  22  43 S5        30.15S
$$

NYZ001>004-010>016-019>021-085-210000-
WEST


CITY           SKY/WX    TMP DP  RH WIND       PRES   REMARKS
NIAGARA FALLS  CLOUDY    47  24  40 CALM      30.07F
BUFFALO        CLOUDY    48  26  42 NE3       30.07F
JAMESTOWN      MOCLDY    47  18  31 S12       30.05F
WELLSVILLE     FAIR      44  17  33 S9        30.08F
ROCHESTER      MOCLDY    45  24  43 NE9       30.10S
PENN YAN       FAIR      48  20  32 S12       30.11R
$$

             KEY
       WCI = WIND CHILL INDEX
       VSB = VISIBILITY
       HX  = HEAT INDEX
$$




USA.gov is the U.S. government's official web portal to all federal, state and local government web resources and services.